www.pogodaiklimat.ru

Погода и климат >> Архив погоды >> Пакистан >> Lahore City


ПОГОДА в Lahore City

  • Прогноз погоды в Lahore City
  • Монитор погоды в Lahore City
  • Климат города

АРХИВ ПОГОДЫ в Lahore City

Время (UTC), дата Ветер
(напр.,м/с)
 
Видим.   Явления Облачность Т
(С)
Тd
(С)
f
(%)
Тe
(С)
Тes
(С)
Комфортность P
(гПа)
Po
(гПа)
Тmin
(С)
Tmax
(С)
R
(мм)
R24
(мм)
S
(см)
03 19.09 штиль 0 4000 м дым ясно +28.0 +23.7 77 +38 +43 очень
душно
1006.8 982.8 +26.1
06 19.09 штиль 0 4000 м дым 1/0
[Ac trans]
+33.5 +21.9 51 +42 +61 опасность
перегрева
1006.8 983.2
09 19.09 З 1 4000 м дым 3/0
[Ac trans]
+36.0 +21.5 43 +44 +56 опасность
перегрева
1003.8 1000.0
12 19.09 штиль 0 4000 м мгла ясно +36.0 +21.5 43 +44 +45 опасность
перегрева
1002.0 978.7 +36.7
15 19.09 штиль 0 4000 м дым ясно +33.0 +23.0 56 +43 +43 опасность
перегрева
1002.8 972.3
18 19.09 штиль 0 4000 м дым ясно +31.0 +23.9 66 +43 +43 опасность
перегрева
1003.5 979.8
21 19.09 штиль 0 4000 м дым ясно +29.0 +24.0 74 +40 +40 очень
душно
1003.7 1000.0
00 20.09 штиль 0 4000 м дым ясно +27.0 +23.4 81 +37 +37 очень
душно
1004.4 1006.3
03 20.09 штиль 0 4000 м дым ясно +28.0 +23.7 77 +38 +43 очень
душно
1005.6 1000.0 +26.1
06 20.09 штиль 0 4000 м мгла ясно +33.5 +21.0 48 +41 +61 опасность
перегрева
1005.9 982.4
09 20.09 С 1 4000 м мгла ясно +36.0 +21.5 43 +44 +58 опасность
перегрева
1004.3 1000.0
12 20.09 ЮВ 1 4000 м дым 1/1 300 м
[Sc]
+34.5 +23.1 52 +45 +46 опасность
перегрева
1003.9 980.5 +37.1
15 20.09 штиль 0 4000 м дым ясно +31.5 +22.9 60 +41 +41 опасность
перегрева
1005.3 1000.0
18 20.09 ЮВ 1 4000 м дым ясно +30.0 +22.8 65 +40 +40 очень
душно
1005.9 1010.2
21 20.09 штиль 0 4000 м дым ясно +28.5 +22.7 71 +38 +38 очень
душно
1006.0 1006.0
00 21.09 ЮВ 2 4000 м дым ясно +27.0 +23.4 81 +37 +37 очень
душно
1006.7 982.6
03 21.09 штиль 0 4000 м дым ясно +28.5 +24.2 78 +40 +45 очень
душно
1008.6 984.6 +26.1
06 21.09 ЮВ 1 4000 м дым 4/4 300 м
[Cu hum]
+33.0 +23.8 59 +45 +55 опасность
перегрева
1009.1 985.4
09 21.09 В 1 4000 м дым 3/3 300 м
[Cu hum]
+34.5 +23.1 52 +45 +55 опасность
перегрева
1007.6 1000.0
12 21.09 ЮВ 1 4000 м дым ясно +33.5 +23.5 56 +44 +46 опасность
перегрева
1006.1 1004.9 +35.3
15 21.09 штиль 0 4000 м дым ясно +31.0 +23.9 66 +43 +43 опасность
перегрева
1006.9 1000.0
18 21.09 штиль 0 4000 м дым ясно +30.0 +25.1 75 +43 +43 опасность
перегрева
1008.9 985.0
21 21.09 СВ 1 4000 м дым ясно +28.5 +24.2 78 +40 +40 очень
душно
1009.1 1000.0
00 22.09 СВ 1 4000 м дым ясно +28.5 +24.2 78 +40 +40 очень
душно
1009.1 1000.0
03 22.09 ЮВ 1 4000 м дым 8/5 300 м
[Sc diur, vesp Ac As]
+27.5 +23.1 77 +37 +38 очень
душно
1009.4 985.4 +26.1
06 22.09 СВ 4 4000 м дым 8/4 1000 м
[Sc diur, vesp Ac As]
+29.0 +21.6 64 +37 +40 очень
душно
1010.8 986.8
09 22.09 ЮВ 2 4000 м дым 8/5 300 м
[Sc Ac As]
+29.0 +22.4 68 +38 +41 очень
душно
1009.3 1000.0
12 22.09 З 2 300 м дым 8/5 300 м
[Sc Ac As]
+26.0 +21.5 76 +33 +33 очень
душно
1008.9 1004.5 +30.1
15 22.09 С 1 4000 м дым 5/4 300 м
[Sc Ac trans]
+23.5 +19.6 79 +29 +29 душно 1008.8 1000.0
18 22.09 С 2 4000 м дым 8/5 300 м
[Sc Ac trans]
+23.0 +18.3 75 +29 +29 очень
душно
1010.7 986.2
21 22.09 С 1 2000 м гроза, ливневой дождь 10/6 300 м
[Cb cap Ac As]
+22.0 +20.5 91 +28 +28 душно 1009.7 1000.0 2
00 23.09 СЗ 1 2000 м дым {гроза, дождь} 10/4
[Sc As trans]
+22.0 +20.5 91 +28 +28 душно 1009.2 995.1 3
03 23.09 С 1 2000 м дым 9/6 300 м
[Sc As trans]
+22.0 +20.5 91 +28 +29 душно 1010.0 985.5 +21.1
06 23.09 С 2 4000 м слабая морось 10/6 300 м
[Sc As trans]
+23.0 +20.7 87 +30 +33 очень
душно
1009.9 985.4 0.0
09 23.09 С 1 4000 м слабая морось 10/6 300 м
[Sc As trans]
+24.0 +22.5 91 +31 +34 очень
душно
1008.9 1000.0 0.3
12 23.09 штиль 0 4000 м дым {дождь} 10/8 300 м
[Cb calv Ac trans]
+24.5 +21.8 85 +31 +32 очень
душно
1008.0 983.7 +24.9 2
15 23.09 С 1 4000 м дым 10/10 300 м
[Cb calv Ac trans]
+23.5 +22.8 96 +31 +31 очень
душно
1009.4 1000.0
18 23.09 С 1 4000 м дым {морось} 10/10 300 м
[Cb calv Ac trans]
+23.0 +22.3 96 +31 +31 очень
душно
1009.7 985.7 0.2
21 23.09 штиль 0 4000 м 9/5 1200 м
[Sc As trans]
+21.5 +19.1 86 +26 +26 душно 1009.0 982.1
00 24.09 4000 м дым н/о +21.5 +20.0 91 +27 +27 душно 1008.2 983.6
03 24.09 штиль 0 4000 м дым 1/0
[Ac trans]
+23.0 +19.9 83 +30 +34 очень
душно
1009.1 984.7 +21.1
06 24.09 штиль 0 4000 м дым 3/0
[Ac trans]
+27.5 +19.9 63 +33 +49 очень
душно
1008.9 984.9
09 24.09 С 1 4000 м дым 4/4 300 м
[Cu Sc]
+30.5 +20.0 53 +37 +45 очень
душно
1007.5 1000.0
12 24.09 СЗ 1 4000 м дым ясно +29.0 +19.9 58 +35 +36 очень
душно
1006.5 982.6 +30.5
15 24.09 штиль 0 4000 м дым ясно +24.5 +20.7 79 +30 +30 очень
душно
1006.8 1000.0
18 24.09 штиль 0 4000 м дым 3/0
[Ac trans]
+24.0 +20.2 79 +30 +30 очень
душно
1008.4 984.0
21 24.09 штиль 0 4000 м дым 6/3 1200 м
[Sc Ac trans]
+23.5 +19.6 79 +29 +29 душно 1008.7 980.9
00 25.09 штиль 0 4000 м дым ясно +23.0 +19.9 83 +30 +30 очень
душно
1007.7 983.2
03 25.09 штиль 0 4000 м дым ясно +24.0 +21.0 83 +30 +35 очень
душно
1007.9 983.5 +23.0
06 25.09 штиль 0 4000 м дым ясно +29.0 +21.6 64 +37 +56 опасность
солнечного
удара
1009.6 985.6
09 25.09 штиль 0 4000 м дым 5/3 300 м
[Cu Sc]
+32.0 +21.8 55 +41 +50 опасность
перегрева
1007.7 1000.0
12 25.09 З 1 4000 м дым 4/4 300 м
[Sc]
+32.0 +21.8 55 +41 +41 опасность
перегрева
1006.0 1005.2 +33.1
15 25.09 штиль 0 4000 м дым 3/3 300 м
[Sc]
+28.5 +23.5 74 +39 +39 очень
душно
1007.0 1000.0
18 25.09 штиль 0 4000 м дым ясно +27.5 +23.1 77 +37 +37 очень
душно
1007.4 983.4
21 25.09 штиль 0 4000 м дым ясно +26.0 +23.1 84 +35 +35 очень
душно
1006.8 1000.0
00 26.09 штиль 0 4000 м дым ясно +25.0 +22.0 83 +32 +32 очень
душно
1006.7 982.5

 

Местоположение метеостанции Lahore City (Пакистан): широта 31.55 долгота 74.33 высота над уровнем моря 215 м.

В архиве по умолчанию представлена погода в Lahore City за последнюю неделю. Архивные данные за месяц целиком и за предыдущие месяцы, начиная с января 2011 года, Вы можете получить, выбрав интересующий диапазон дат из раскрывающегося списка и нажав кнопку "Ввод!".


*Определитесь, кто Вы:
робот инопланетянин человек

Внимание! Время в таблицах - всемирное. Для получения местного времени необходимо прибавить поправку, которая в Lahore City равна 5 ч.

Смотрите также архив погоды в соседних городах и на ближайших метеорологических станциях:

Погода в Amritsar (Punjab, Индия) (52 км)
Погода в Sialkot (Пакистан) (107 км)
Погода в Faisal Abad (Пакистан) (117 км)
Погода в Jammu (Jammu and Kashmir, Индия) (133 км)
Погода в Jhelum (Пакистан) (164 км)
Погода в Sargodha (Пакистан) (166 км)
Погода в Katra (Jammu and Kashmir, Индия) (170 км)
Погода в Ludhiana (Punjab, Индия) (170 км)
Погода в Una (Himachal Pradesh, Индия) (184 км)
Погода в Sri Ganganagar (Rajasthan, Индия) (185 км)

Пояснения к столбцам:

Ветер - указаны скорость ветра в м/с - средняя за 10 мин, порывы в срок и между сроками (в фигурных скобках) и направление, откуда дует ветер: С - северный, СВ - северо-восточный, В - восточный, ЮВ - юго-восточный, Ю - южный, ЮЗ - юго-западный, З - западный, СЗ - северо-западный.
Видимость - горизонтальная дальность видимости в метрах или километрах. При видимости от 1 до 10 км при отсутствии осадков обычно наблюдается дымка, при ухудшении видимости до 1 км и менее - туман. В сухую погоду видимость может ухудшаться дымом, пылью или мглою.
Явления - указаны атмосферные явления, наблюдавшиеся в срок или в последний час перед сроком; фигурными скобками обозначены явления, наблюдавшиеся между сроками (за 1-3 часа до срока); квадратными скобками обозначены град или гололедные отложения с указанием их диаметра в мм.
Облачность - указаны через наклонную черту общая и нижняя облачность в баллах и высота нижней границы облаков в метрах; квадратными скобками обозначены формы облаков: Ci - перистые, Cs - перисто-слоистые, Cc - перисто-кучевые, Ac - высококучевые, As - высокослоистые, Sc - слоисто-кучевые, Ns - слоисто-дождевые, Cu - кучевые, Cb - кучево-дождевые. Подробнее классификацию облаков см. в Атласе облаков (PDF).
T - Температура воздуха - температура, измеренная на высоте 2 м над землей.
Td - Температура точки росы - температура, при понижении до которой содержащийся в воздухе водяной пар достигнет насыщения.
f - Относительная влажность воздуха - влажноcть воздуха, измеренная на высоте 2 м над землей.
Te - Эффективная температура - температура, которую ощущает одетый по сезону человек в тени. Характеристика душности погоды. При расчете учитывается влияние влажности воздуха и скорости ветра на теплоощущения человека.
Tes - Эффективная температура на солнце - температура, которую ощущает человек, с поправкой на солнечный нагрев. Характеристика знойности погоды. Зависит от высоты солнца над горизонтом, облачности и скорости ветра. Ночью, в пасмурную погоду, а также при ветре 12 м/с и более поправка равна нулю.
P - Атмосферное давление - приведенное к уровню моря атмосферное давление.
Po - Атмосферное давление - измеренное на уровне метеостанции атмосферное давление.
Tmin - Минимальная температура - минимум температуры воздуха на высоте 2 м над землей.
Tmax - Максимальная температура - максимум температуры воздуха на высоте 2 м над землей.
R - Количество осадков - Количество выпавших осадков за период времени, мм. При наведении курсора мыши на число - период времени, за который выпало указанное количество осадков.
R24 - Количество осадков - Количество выпавших осадков за 24 часа, мм.
S - Снежный покров - Высота снежного покрова, см. При наведении курсора мыши на число - состояние снежного покрова и степень покрытия местности в баллах.